CW9944 Porsgrunn NO current weather conditions

sailwx.info

Wind from 068

Air temperature 13.3° C
Dewpoint 10.1° C

Last reported at 2014-Sep-01 20:24 UTC.
Time now 2014-Sep-02 04:18 UTC

Location: N 59°07' E 009°39'.
View on Google Maps.

See reports from other nearby stations

  
Tides and Currents Weather Stations Pressure Air Temp Water Temp Dewpoint Dewpoint Depression Visibility Wind Speed Wind Dir Waves Ship Positions
date/time (UTC)wind fromknots sea level pressurealtimeterstation pressurevisibilityair tempwater tempwave heightnotes
2014-Sep-01 20:24 068 13.3
2014-Sep-01 20:14 050 13.3
2014-Sep-01 20:04 13.3
2014-Sep-01 19:54 13.3
2014-Sep-01 19:44 13.3
2014-Sep-01 19:34 13.3
2014-Sep-01 19:24 13.3
2014-Sep-01 19:14 13.9
2014-Sep-01 19:04 13.9
2014-Sep-01 18:54 315 13.9
2014-Sep-01 18:44 315 14.4
2014-Sep-01 18:34 338 14.4
2014-Sep-01 18:24 305 14.4
2014-Sep-01 18:14 292 15.0
2014-Sep-01 18:04 292 15.0
2014-Sep-01 17:54 292 15.0
2014-Sep-01 17:44 15.0
2014-Sep-01 17:34 338 15.6
2014-Sep-01 17:24 022 15.6
2014-Sep-01 17:14 15.6
2014-Sep-01 17:04 338 16.1
2014-Sep-01 16:54 16.1
2014-Sep-01 16:44 16.7
2014-Sep-01 16:34 068 16.7
2014-Sep-01 16:24 16.7
2014-Sep-01 16:14 005 16.7
2014-Sep-01 16:04 17.2
2014-Sep-01 15:54 068 0 gusting 0 17.2
2014-Sep-01 15:44 17.8
2014-Sep-01 15:34 025 17.8
2014-Sep-01 15:24 098 17.8
2014-Sep-01 15:14 068 17.8
2014-Sep-01 15:04 348 17.8
2014-Sep-01 14:54 009 18.3
2014-Sep-01 14:44 18.3
2014-Sep-01 14:34 18.3
2014-Sep-01 14:24 345 18.3
2014-Sep-01 14:14 009 18.9
2014-Sep-01 14:04 315 2 gusting 2 18.9
2014-Sep-01 13:54 318 19.4
2014-Sep-01 13:44 315 0 gusting 0 18.9
2014-Sep-01 13:34 292 1 gusting 1 18.9
2014-Sep-01 13:24 045 0 gusting 1 19.4
2014-Sep-01 13:14 049 19.4
2014-Sep-01 13:04 090 19.4
2014-Sep-01 12:54 263 19.4
2014-Sep-01 12:44 225 2 gusting 2 18.9
2014-Sep-01 12:34 248 19.4
2014-Sep-01 12:24 261 18.9
2014-Sep-01 12:14 020 0 gusting 0 18.9
2014-Sep-01 12:04 289 18.9
2014-Sep-01 11:54 158 18.3
2014-Sep-01 11:44 068 18.3
2014-Sep-01 11:34 090 18.3
2014-Sep-01 11:24 138 18.3
2014-Sep-01 11:14 229 0 gusting 0 18.3
2014-Sep-01 11:04 248 18.3
2014-Sep-01 10:54 135 17.8
2014-Sep-01 10:44 158 17.8
2014-Sep-01 10:34 135 17.8
2014-Sep-01 10:24 347 17.8
2014-Sep-01 10:14 090 0 gusting 1 17.8
2014-Sep-01 10:04 090 18.3
2014-Sep-01 09:54 045 0 gusting 1 18.3
2014-Sep-01 09:44 022 18.3
2014-Sep-01 09:34 292 17.8
2014-Sep-01 09:24 158 17.8
2014-Sep-01 09:14 071 17.2
2014-Sep-01 09:04 091 17.2
2014-Sep-01 08:54 143 16.7
2014-Sep-01 08:44 158 0 gusting 1 16.1
2014-Sep-01 08:34 135 0 gusting 0 16.1
2014-Sep-01 08:24 107 15.6
2014-Sep-01 08:14 117 15.0
2014-Sep-01 08:04 090 15.0
2014-Sep-01 07:54 158 14.4
2014-Sep-01 07:44 218 14.4
2014-Sep-01 07:34 180 14.4
2014-Sep-01 07:24 206 15.0
2014-Sep-01 07:14 121 15.0
2014-Sep-01 07:04 191 15.0
2014-Sep-01 06:54 158 13.9
2014-Sep-01 06:44 225 12.8
2014-Sep-01 06:34 202 11.7
2014-Sep-01 06:24 135 10.6
2014-Sep-01 06:14 225 8.9
2014-Sep-01 06:04 225 8.3
2014-Sep-01 05:54 180 8.3
2014-Sep-01 05:44 260 0 gusting 0 8.3
2014-Sep-01 05:34 292 7.8